Station Historical Data
Daily Summary for June 13, 2012 Units:  Metric    English   Both
« Previous Day
Next Day »
Daily Weekly Monthly Yearly Custom
  High: Low: Average:
Temperature: 29.2 °C 16.6 °C 23.2 °C
Dew Point: 18.8 °C 12.1 °C 15.3 °C
Humidity: 89% 36% 64%
Wind Speed: 17.7km/h 0km/h 5.6km/h
Wind Gust: 19.3km/h - -
Wind- - SW
Pressure: 1016.1 hPa 1012.8 hPa -
Precipitation: 0 mm    
Historical Graphs
 
 
Tabular Data for June 13, 2012
Time Temperature Dew Point Pressure Wind Wind Speed Wind Gust Humidity Rainfall Rate (Hourly) Conditions
00:00 21.2 °C 18.8 °C 1015.5 hPa NNW 3.2 km/h 3.2 km/h 86% 0 mm
00:01 21.2 °C 18.8 °C 1015.5 hPa NNW 1.6 km/h 3.2 km/h 86% 0 mm
00:06 21.2 °C 18.7 °C 1015.8 hPa NNW 1.6 km/h 3.2 km/h 86% 0 mm
00:11 21.1 °C 18.7 °C 1015.8 hPa NW 1.6 km/h 3.2 km/h 86% 0 mm
00:16 21.1 °C 18.7 °C 1015.8 hPa NNW 1.6 km/h 3.2 km/h 86% 0 mm
00:21 21.1 °C 18.7 °C 1015.8 hPa NNW 1.6 km/h 3.2 km/h 86% 0 mm
00:26 21 °C 18.6 °C 1015.8 hPa NNW 3.2 km/h 3.2 km/h 86% 0 mm
00:31 21 °C 18.6 °C 1015.5 hPa NNW 4.8 km/h 4.8 km/h 86% 0 mm
00:36 21 °C 18.6 °C 1015.5 hPa NW 4.8 km/h 6.4 km/h 86% 0 mm
00:41 20.9 °C 18.5 °C 1015.8 hPa NW 6.4 km/h 6.4 km/h 86% 0 mm
00:46 20.9 °C 18.5 °C 1015.8 hPa NNW 4.8 km/h 9.7 km/h 86% 0 mm
00:51 21 °C 18.6 °C 1015.5 hPa NNW 6.4 km/h 9.7 km/h 86% 0 mm
00:56 20.9 °C 18.5 °C 1015.8 hPa NNW 8 km/h 9.7 km/h 86% 0 mm
01:01 20.9 °C 18.3 °C 1015.8 hPa NW 4.8 km/h 12.9 km/h 85% 0 mm
01:06 20.9 °C 18.3 °C 1015.5 hPa NNW 4.8 km/h 8 km/h 85% 0 mm
01:11 20.8 °C 18.2 °C 1015.8 hPa NNW 3.2 km/h 8 km/h 85% 0 mm
01:16 20.7 °C 18.2 °C 1015.5 hPa North 3.2 km/h 4.8 km/h 86% 0 mm
01:21 20.5 °C 18.1 °C 1015.5 hPa NNE 1.6 km/h 4.8 km/h 86% 0 mm
01:26 20.3 °C 18.1 °C 1015.5 hPa North 3.2 km/h 3.2 km/h 87% 0 mm
01:32 20.2 °C 18 °C 1015.5 hPa North 4.8 km/h 4.8 km/h 87% 0 mm
01:37 20.1 °C 17.8 °C 1015.5 hPa North 1.6 km/h 3.2 km/h 87% 0 mm
01:42 19.9 °C 17.9 °C 1015.1 hPa NNE 1.6 km/h 3.2 km/h 88% 0 mm
01:47 19.8 °C 17.8 °C 1015.5 hPa NNE 1.6 km/h 3.2 km/h 88% 0 mm
01:52 19.8 °C 17.8 °C 1015.1 hPa NNE 1.6 km/h 6.4 km/h 88% 0 mm
01:57 19.8 °C 17.7 °C 1015.1 hPa North 1.6 km/h 4.8 km/h 88% 0 mm
02:02 19.7 °C 17.7 °C 1015.1 hPa NNE 3.2 km/h 3.2 km/h 88% 0 mm
02:07 19.7 °C 17.8 °C 1015.1 hPa NNE 3.2 km/h 3.2 km/h 89% 0 mm
02:12 19.7 °C 17.8 °C 1015.1 hPa North 1.6 km/h 3.2 km/h 89% 0 mm
02:17 19.7 °C 17.9 °C 1014.8 hPa NNE 4.8 km/h 4.8 km/h 89% 0 mm
02:22 19.7 °C 17.7 °C 1015.1 hPa North 3.2 km/h 4.8 km/h 88% 0 mm
02:27 19.7 °C 17.7 °C 1015.1 hPa NNW 4.8 km/h 6.4 km/h 88% 0 mm
02:32 19.6 °C 17.6 °C 1015.1 hPa NE 3.2 km/h 4.8 km/h 88% 0 mm
02:37 19.6 °C 17.6 °C 1015.1 hPa North 1.6 km/h 6.4 km/h 88% 0 mm
02:42 19.6 °C 17.6 °C 1015.1 hPa North 3.2 km/h 8 km/h 88% 0 mm
02:47 19.6 °C 17.4 °C 1014.8 hPa NNE 6.4 km/h 6.4 km/h 87% 0 mm
02:52 19.7 °C 17.3 °C 1014.8 hPa NNE 4.8 km/h 4.8 km/h 86% 0 mm
02:57 19.7 °C 17.1 °C 1014.8 hPa North 1.6 km/h 4.8 km/h 85% 0 mm
03:02 19.7 °C 16.9 °C 1014.8 hPa North 1.6 km/h 4.8 km/h 84% 0 mm
03:07 19.7 °C 16.9 °C 1014.8 hPa North 3.2 km/h 4.8 km/h 84% 0 mm
03:12 19.6 °C 16.8 °C 1014.8 hPa North 3.2 km/h 3.2 km/h 84% 0 mm
03:17 19.5 °C 16.7 °C 1014.8 hPa NNW 1.6 km/h 6.4 km/h 84% 0 mm
03:22 19.4 °C 16.7 °C 1014.8 hPa North 3.2 km/h 4.8 km/h 84% 0 mm
03:27 19.4 °C 16.6 °C 1014.8 hPa North 3.2 km/h 4.8 km/h 84% 0 mm
03:32 19.3 °C 16.5 °C 1014.4 hPa North 6.4 km/h 8 km/h 84% 0 mm
03:37 19.2 °C 16.6 °C 1014.4 hPa North 3.2 km/h 6.4 km/h 85% 0 mm
03:42 19.1 °C 16.5 °C 1014.8 hPa North 3.2 km/h 4.8 km/h 85% 0 mm
03:47 18.9 °C 16.4 °C 1014.8 hPa North 4.8 km/h 4.8 km/h 85% 0 mm
03:52 18.9 °C 16.3 °C 1014.8 hPa North 4.8 km/h 4.8 km/h 85% 0 mm
03:57 18.8 °C 16.3 °C 1014.8 hPa NNE 4.8 km/h 6.4 km/h 85% 0 mm
04:02 18.8 °C 16.2 °C 1014.8 hPa North 4.8 km/h 9.7 km/h 85% 0 mm
04:07 18.7 °C 16.2 °C 1014.8 hPa North 4.8 km/h 6.4 km/h 85% 0 mm
04:12 18.7 °C 16.1 °C 1014.8 hPa North 3.2 km/h 6.4 km/h 85% 0 mm
04:17 18.6 °C 16.1 °C 1014.8 hPa North 3.2 km/h 6.4 km/h 85% 0 mm
04:22 18.5 °C 15.9 °C 1014.4 hPa North 3.2 km/h 4.8 km/h 85% 0 mm
04:27 18.4 °C 15.8 °C 1014.8 hPa North 3.2 km/h 4.8 km/h 85% 0 mm
04:32 18.3 °C 15.7 °C 1014.4 hPa NNE 4.8 km/h 6.4 km/h 85% 0 mm
04:37 18.2 °C 15.8 °C 1014.4 hPa North 3.2 km/h 6.4 km/h 86% 0 mm
04:43 18.1 °C 15.7 °C 1014.4 hPa NNW 3.2 km/h 6.4 km/h 86% 0 mm
04:48 18 °C 15.6 °C 1014.4 hPa North 4.8 km/h 6.4 km/h 86% 0 mm
04:53 18 °C 15.6 °C 1014.4 hPa North 6.4 km/h 9.7 km/h 86% 0 mm
04:58 18.1 °C 15.5 °C 1014.4 hPa North 4.8 km/h 6.4 km/h 85% 0 mm
05:03 18 °C 15.4 °C 1014.4 hPa North 3.2 km/h 6.4 km/h 85% 0 mm
05:08 17.9 °C 15.3 °C 1014.4 hPa NNW 3.2 km/h 6.4 km/h 85% 0 mm
05:13 17.9 °C 15.2 °C 1014.4 hPa North 3.2 km/h 6.4 km/h 84% 0 mm
05:18 17.9 °C 15.2 °C 1014.4 hPa NNE 4.8 km/h 4.8 km/h 84% 0 mm
05:23 18 °C 15.1 °C 1014.4 hPa NNW 1.6 km/h 6.4 km/h 83% 0 mm
05:28 18 °C 15.1 °C 1014.1 hPa NNE 1.6 km/h 6.4 km/h 83% 0 mm
05:33 17.9 °C 15 °C 1014.4 hPa North 3.2 km/h 4.8 km/h 83% 0 mm
05:38 17.9 °C 14.8 °C 1014.4 hPa NNE 1.6 km/h 4.8 km/h 82% 0 mm
05:43 17.9 °C 14.8 °C 1014.4 hPa North 1.6 km/h 4.8 km/h 82% 0 mm
05:48 17.9 °C 14.6 °C 1014.4 hPa North 4.8 km/h 6.4 km/h 81% 0 mm
05:53 17.9 °C 14.6 °C 1014.8 hPa NNE 4.8 km/h 6.4 km/h 81% 0 mm
05:58 17.8 °C 14.5 °C 1014.4 hPa ENE 1.6 km/h 3.2 km/h 81% 0 mm
06:03 17.7 °C 14.4 °C 1014.4 hPa NE 3.2 km/h 4.8 km/h 81% 0 mm
06:08 17.7 °C 14.4 °C 1014.4 hPa NNE 1.6 km/h 4.8 km/h 81% 0 mm
06:13 17.6 °C 14.3 °C 1014.8 hPa NNW 1.6 km/h 4.8 km/h 81% 0 mm
06:18 17.4 °C 14.1 °C 1014.8 hPa North 4.8 km/h 8 km/h 81% 0 mm
06:23 17.2 °C 14.1 °C 1014.8 hPa NNW 3.2 km/h 4.8 km/h 82% 0 mm
06:28 17.1 °C 13.9 °C 1014.8 hPa Calm   4.8 km/h 82% 0 mm
06:33 16.9 °C 13.8 °C 1014.8 hPa North 1.6 km/h 1.6 km/h 82% 0 mm
06:38 16.9 °C 13.8 °C 1014.8 hPa NNE 3.2 km/h 3.2 km/h 82% 0 mm
06:43 16.9 °C 13.6 °C 1014.8 hPa NNW 3.2 km/h 4.8 km/h 81% 0 mm
06:48 16.9 °C 13.6 °C 1014.8 hPa NNE 4.8 km/h 6.4 km/h 81% 0 mm
06:53 16.9 °C 13.7 °C 1014.8 hPa North 3.2 km/h 6.4 km/h 81% 0 mm
06:58 16.8 °C 13.6 °C 1014.8 hPa NNW 4.8 km/h 4.8 km/h 81% 0 mm
07:03 16.7 °C 13.6 °C 1014.8 hPa North 3.2 km/h 6.4 km/h 82% 0 mm
07:09 16.6 °C 13.7 °C 1014.8 hPa North 4.8 km/h 6.4 km/h 83% 0 mm
07:14 16.6 °C 13.7 °C 1015.1 hPa NNW 3.2 km/h 6.4 km/h 83% 0 mm
07:19 16.7 °C 13.8 °C 1015.1 hPa NNW 4.8 km/h 4.8 km/h 83% 0 mm
07:24 16.8 °C 13.9 °C 1015.1 hPa North 6.4 km/h 6.4 km/h 83% 0 mm
07:29 17.2 °C 14.1 °C 1015.1 hPa NNW 4.8 km/h 8 km/h 82% 0 mm
07:34 17.5 °C 14.2 °C 1015.1 hPa North 3.2 km/h 6.4 km/h 81% 0 mm
07:39 17.8 °C 14.3 °C 1015.1 hPa NNE 4.8 km/h 9.7 km/h 80% 0 mm
07:44 18.1 °C 14.3 °C 1015.1 hPa North 8 km/h 8 km/h 79% 0 mm
07:49 18.3 °C 14.4 °C 1015.1 hPa North 6.4 km/h 8 km/h 78% 0 mm
07:54 18.5 °C 14.6 °C 1014.8 hPa North 3.2 km/h 6.4 km/h 78% 0 mm
07:59 18.7 °C 14.4 °C 1014.8 hPa North 6.4 km/h 11.3 km/h 76% 0 mm
08:04 18.9 °C 14.6 °C 1015.1 hPa NNW 6.4 km/h 9.7 km/h 76% 0 mm
08:09 18.9 °C 14.6 °C 1015.1 hPa NW 3.2 km/h 8 km/h 76% 0 mm
08:14 18.9 °C 14.6 °C 1015.5 hPa NNW 9.7 km/h 9.7 km/h 76% 0 mm
08:19 19.1 °C 14.6 °C 1015.5 hPa NW 6.4 km/h 9.7 km/h 75% 0 mm
08:24 19.3 °C 14.7 °C 1015.5 hPa NW 6.4 km/h 9.7 km/h 75% 0 mm
08:29 19.5 °C 14.7 °C 1015.5 hPa NNW 8 km/h 9.7 km/h 74% 0 mm
08:34 19.6 °C 14.4 °C 1015.8 hPa NNW 9.7 km/h 9.7 km/h 72% 0 mm
08:39 19.8 °C 14.6 °C 1015.8 hPa NNW 6.4 km/h 12.9 km/h 72% 0 mm
08:44 20.1 °C 15.3 °C 1015.8 hPa NNW 8 km/h 8 km/h 74% 0 mm
08:49 20.2 °C 14.7 °C 1015.8 hPa NW 6.4 km/h 9.7 km/h 71% 0 mm
08:54 20.4 °C 14.9 °C 1015.8 hPa NNW 4.8 km/h 11.3 km/h 71% 0 mm
08:59 20.5 °C 15.1 °C 1016.1 hPa NNW 8 km/h 9.7 km/h 71% 0 mm
09:04 20.6 °C 15.2 °C 1016.1 hPa North 8 km/h 11.3 km/h 71% 0 mm
09:09 20.8 °C 15.4 °C 1016.1 hPa NW 8 km/h 11.3 km/h 71% 0 mm
09:14 20.9 °C 15.3 °C 1016.1 hPa North 6.4 km/h 9.7 km/h 70% 0 mm
09:19 21.2 °C 15.3 °C 1016.1 hPa NW 6.4 km/h 11.3 km/h 69% 0 mm
09:24 21.4 °C 15.1 °C 1016.1 hPa NNE 8 km/h 11.3 km/h 67% 0 mm
09:29 21.7 °C 15.8 °C 1016.1 hPa NNE 6.4 km/h 9.7 km/h 69% 0 mm
09:34 21.8 °C 14.9 °C 1016.1 hPa NNW 9.7 km/h 12.9 km/h 65% 0 mm
09:39 21.9 °C 15.1 °C 1016.1 hPa NNE 6.4 km/h 12.9 km/h 65% 0 mm
09:44 22.2 °C 15.3 °C 1016.1 hPa NNW 3.2 km/h 11.3 km/h 65% 0 mm
09:49 22.4 °C 15.1 °C 1015.8 hPa North 12.9 km/h 12.9 km/h 63% 0 mm
09:54 22.5 °C 15.3 °C 1015.8 hPa North 9.7 km/h 12.9 km/h 64% 0 mm
09:59 22.7 °C 14.6 °C 1015.8 hPa NNE 4.8 km/h 9.7 km/h 60% 0 mm
10:04 22.9 °C 14.2 °C 1016.1 hPa NNW 4.8 km/h 12.9 km/h 58% 0 mm
10:09 23.2 °C 15 °C 1016.1 hPa North 9.7 km/h 9.7 km/h 60% 0 mm
10:14 23.3 °C 15.4 °C 1016.1 hPa NW 6.4 km/h 12.9 km/h 61% 0 mm
10:19 23.3 °C 14.3 °C 1016.1 hPa NNE 8 km/h 12.9 km/h 57% 0 mm
10:24 23.4 °C 15 °C 1016.1 hPa NW 11.3 km/h 14.5 km/h 59% 0 mm
10:29 23.4 °C 14.7 °C 1016.1 hPa NNW 4.8 km/h 11.3 km/h 58% 0 mm
10:35 23.7 °C 14.7 °C 1015.8 hPa NE 4.8 km/h 11.3 km/h 57% 0 mm
10:40 23.8 °C 15.3 °C 1015.8 hPa NNW 9.7 km/h 11.3 km/h 59% 0 mm
10:45 23.9 °C 15.1 °C 1015.8 hPa NNE 6.4 km/h 9.7 km/h 58% 0 mm
10:50 23.9 °C 14.6 °C 1015.8 hPa NNE 4.8 km/h 11.3 km/h 56% 0 mm
10:55 24.1 °C 14.4 °C 1015.8 hPa NW 14.5 km/h 14.5 km/h 55% 0 mm
11:00 24 °C 14.4 °C 1015.8 hPa NW 8 km/h 12.9 km/h 55% 0 mm
11:05 24.1 °C 14.2 °C 1015.8 hPa NW 8 km/h 11.3 km/h 54% 0 mm
11:10 24.3 °C 16.1 °C 1015.8 hPa NW 9.7 km/h 9.7 km/h 60% 0 mm
11:15 24.6 °C 16 °C 1015.8 hPa NNW 8 km/h 11.3 km/h 59% 0 mm
11:20 24.6 °C 15 °C 1015.8 hPa NNW 8 km/h 14.5 km/h 55% 0 mm
11:25 24.8 °C 15.4 °C 1015.8 hPa NW 8 km/h 11.3 km/h 56% 0 mm
11:30 24.9 °C 14.4 °C 1015.8 hPa North 6.4 km/h 11.3 km/h 52% 0 mm
11:35 25.2 °C 15.8 °C 1015.8 hPa NNE 4.8 km/h 8 km/h 56% 0 mm
11:40 25.4 °C 16 °C 1015.5 hPa NW 8 km/h 9.7 km/h 56% 0 mm
11:45 25.4 °C 15.4 °C 1015.5 hPa North 9.7 km/h 11.3 km/h 54% 0 mm
11:50 25.6 °C 15.6 °C 1015.5 hPa NW 8 km/h 11.3 km/h 54% 0 mm
11:55 25.6 °C 14.4 °C 1015.5 hPa NNE 6.4 km/h 12.9 km/h 50% 0 mm
12:00 25.7 °C 14.5 °C 1015.5 hPa NW 8 km/h 14.5 km/h 50% 0 mm
12:05 25.7 °C 12.9 °C 1015.5 hPa North 6.4 km/h 12.9 km/h 45% 0 mm
12:10 25.9 °C 14.4 °C 1015.5 hPa North 4.8 km/h 12.9 km/h 49% 0 mm
12:15 26 °C 14.4 °C 1015.5 hPa NNE 4.8 km/h 11.3 km/h 49% 0 mm
12:20 26 °C 13.8 °C 1015.1 hPa North 1.6 km/h 14.5 km/h 47% 0 mm
12:25 26.2 °C 14.7 °C 1015.1 hPa NNW 11.3 km/h 14.5 km/h 49% 0 mm
12:30 26.4 °C 14.2 °C 1015.1 hPa NW 4.8 km/h 12.9 km/h 47% 0 mm
12:35 26.4 °C 12.1 °C 1015.1 hPa NE 17.7 km/h 17.7 km/h 41% 0 mm
12:40 26.6 °C 13.3 °C 1015.1 hPa NNW 6.4 km/h 12.9 km/h 44% 0 mm
12:45 26.7 °C 13.4 °C 1015.1 hPa NNW 4.8 km/h 12.9 km/h 44% 0 mm
12:50 26.8 °C 12.8 °C 1015.1 hPa NNW 9.7 km/h 12.9 km/h 42% 0 mm
12:55 26.8 °C 13.5 °C 1015.1 hPa NNE 9.7 km/h 17.7 km/h 44% 0 mm
13:00 26.9 °C 13.9 °C 1014.8 hPa North 9.7 km/h 11.3 km/h 45% 0 mm
13:05 26.9 °C 12.6 °C 1014.8 hPa NW 8 km/h 11.3 km/h 41% 0 mm
13:10 27.3 °C 14.7 °C 1014.8 hPa NW 9.7 km/h 14.5 km/h 46% 0 mm
13:15 27.1 °C 13.1 °C 1014.8 hPa NNW 8 km/h 8 km/h 42% 0 mm
13:20 27.3 °C 14.7 °C 1014.8 hPa NNW 14.5 km/h 16.1 km/h 46% 0 mm
13:25 27.3 °C 12.5 °C 1014.8 hPa North 12.9 km/h 14.5 km/h 40% 0 mm
13:30 27.4 °C 13.3 °C 1014.8 hPa NE 6.4 km/h 9.7 km/h 42% 0 mm
13:35 27.6 °C 13.6 °C 1014.8 hPa NNE 8 km/h 9.7 km/h 42% 0 mm
13:40 27.5 °C 13.8 °C 1014.4 hPa NW 3.2 km/h 11.3 km/h 43% 0 mm
13:47 27.6 °C 13.5 °C 1014.4 hPa NNW 6.4 km/h 11.3 km/h 42% 0 mm
13:52 27.6 °C 14.3 °C 1014.4 hPa NNE 6.4 km/h 11.3 km/h 44% 0 mm
13:57 27.6 °C 13.1 °C 1014.1 hPa ENE 8 km/h 11.3 km/h 41% 0 mm
14:02 27.6 °C 13.5 °C 1014.4 hPa North 14.5 km/h 14.5 km/h 42% 0 mm
14:07 27.6 °C 14.3 °C 1014.4 hPa North 8 km/h 11.3 km/h 44% 0 mm
14:12 27.8 °C 15.4 °C 1014.4 hPa North 11.3 km/h 11.3 km/h 47% 0 mm
14:17 27.8 °C 14.1 °C 1014.4 hPa NW 12.9 km/h 14.5 km/h 43% 0 mm
14:22 27.9 °C 15.2 °C 1014.4 hPa NNW 11.3 km/h 19.3 km/h 46% 0 mm
14:27 27.8 °C 13.8 °C 1014.1 hPa NNW 4.8 km/h 12.9 km/h 42% 0 mm
14:32 27.9 °C 13.1 °C 1014.1 hPa North 3.2 km/h 6.4 km/h 40% 0 mm
14:37 28.2 °C 13.7 °C 1014.1 hPa NNE 6.4 km/h 17.7 km/h 41% 0 mm
14:42 28.1 °C 12.4 °C 1014.1 hPa NW 12.9 km/h 19.3 km/h 38% 0 mm
14:47 28 °C 13.2 °C 1013.8 hPa NNW 1.6 km/h 11.3 km/h 40% 0 mm
14:52 28.1 °C 13.3 °C 1013.8 hPa West 4.8 km/h 8 km/h 40% 0 mm
14:57 28.3 °C 14.6 °C 1013.8 hPa NE 11.3 km/h 14.5 km/h 43% 0 mm
15:02 28.2 °C 13.7 °C 1013.8 hPa NE 4.8 km/h 9.7 km/h 41% 0 mm
15:07 28.3 °C 13.8 °C 1013.4 hPa NE 8 km/h 12.9 km/h 41% 0 mm
15:12 28.3 °C 14.2 °C 1013.4 hPa NNE 6.4 km/h 12.9 km/h 42% 0 mm
15:17 28.3 °C 12.7 °C 1013.4 hPa NNE 4.8 km/h 9.7 km/h 38% 0 mm
15:22 28.4 °C 12.7 °C 1013.4 hPa NNE 11.3 km/h 14.5 km/h 38% 0 mm
15:27 28.4 °C 14.3 °C 1013.4 hPa North 8 km/h 9.7 km/h 42% 0 mm
15:32 28.5 °C 13.6 °C 1013.1 hPa NNW 6.4 km/h 12.9 km/h 40% 0 mm
15:37 28.6 °C 14.1 °C 1013.4 hPa NE 6.4 km/h 9.7 km/h 41% 0 mm
15:42 28.6 °C 13.7 °C 1013.4 hPa NE 8 km/h 12.9 km/h 40% 0 mm
15:47 28.6 °C 12.9 °C 1013.4 hPa North 9.7 km/h 14.5 km/h 38% 0 mm
15:52 28.7 °C 13.4 °C 1013.4 hPa NNW 4.8 km/h 12.9 km/h 39% 0 mm
15:57 28.7 °C 12.1 °C 1013.4 hPa North 6.4 km/h 14.5 km/h 36% 0 mm
16:02 28.7 °C 13.3 °C 1013.4 hPa NE 9.7 km/h 11.3 km/h 39% 0 mm
16:07 28.7 °C 12.1 °C 1013.4 hPa NE 4.8 km/h 12.9 km/h 36% 0 mm
16:12 28.8 °C 13.8 °C 1013.4 hPa North 14.5 km/h 16.1 km/h 40% 0 mm
16:17 28.8 °C 14.2 °C 1013.4 hPa North 4.8 km/h 11.3 km/h 41% 0 mm
16:22 28.9 °C 14.3 °C 1013.4 hPa NNE 9.7 km/h 14.5 km/h 41% 0 mm
16:27 29 °C 12.8 °C 1013.4 hPa NNW 11.3 km/h 12.9 km/h 37% 0 mm
16:32 28.9 °C 14 °C 1013.4 hPa North 6.4 km/h 8 km/h 40% 0 mm
16:37 29.1 °C 13.8 °C 1013.4 hPa NNW 6.4 km/h 11.3 km/h 39% 0 mm
16:42 29.2 °C 13.8 °C 1013.4 hPa North 8 km/h 12.9 km/h 39% 0 mm
16:47 29.2 °C 13.8 °C 1013.1 hPa North 11.3 km/h 11.3 km/h 39% 0 mm
16:52 29.2 °C 13.4 °C 1013.1 hPa NNE 12.9 km/h 16.1 km/h 38% 0 mm
16:57 29.1 °C 13.3 °C 1013.1 hPa NE 11.3 km/h 14.5 km/h 38% 0 mm
17:02 28.9 °C 13.6 °C 1013.1 hPa North 14.5 km/h 14.5 km/h 39% 0 mm
17:07 28.9 °C 14.7 °C 1013.1 hPa NW 9.7 km/h 12.9 km/h 42% 0 mm
17:12 29 °C 14.4 °C 1013.1 hPa NNW 9.7 km/h 17.7 km/h 41% 0 mm
17:17 29 °C 14.1 °C 1013.1 hPa NE 4.8 km/h 11.3 km/h 40% 0 mm
17:22 28.9 °C 15.1 °C 1013.1 hPa NNW 8 km/h 16.1 km/h 43% 0 mm
17:27 28.9 °C 14.3 °C 1013.1 hPa NNW 4.8 km/h 14.5 km/h 41% 0 mm
17:32 29.1 °C 16.3 °C 1013.1 hPa NW 4.8 km/h 6.4 km/h 46% 0 mm
17:37 29.1 °C 16.3 °C 1013.1 hPa ENE 1.6 km/h 11.3 km/h 46% 0 mm
17:42 29.2 °C 14.2 °C 1013.1 hPa NNE 12.9 km/h 12.9 km/h 40% 0 mm
17:47 29 °C 14.1 °C 1013.1 hPa NNW 4.8 km/h 14.5 km/h 40% 0 mm
17:52 29 °C 16.2 °C 1013.1 hPa North 3.2 km/h 12.9 km/h 46% 0 mm
17:57 28.9 °C 14.7 °C 1013.1 hPa NW 6.4 km/h 12.9 km/h 42% 0 mm
18:02 28.8 °C 14.7 °C 1012.8 hPa North 14.5 km/h 14.5 km/h 42% 0 mm
18:07 28.8 °C 15 °C 1012.8 hPa NNW 8 km/h 12.9 km/h 43% 0 mm
18:12 28.7 °C 15.3 °C 1013.1 hPa North 4.8 km/h 14.5 km/h 44% 0 mm
18:17 28.8 °C 15.3 °C 1013.1 hPa North 8 km/h 12.9 km/h 44% 0 mm
18:22 28.8 °C 14.6 °C 1012.8 hPa NW 4.8 km/h 9.7 km/h 42% 0 mm
18:27 28.9 °C 15.8 °C 1012.8 hPa North 4.8 km/h 12.9 km/h 45% 0 mm
18:33 28.9 °C 14.7 °C 1013.1 hPa North 8 km/h 11.3 km/h 42% 0 mm
18:38 28.9 °C 15.1 °C 1013.1 hPa NNE 4.8 km/h 11.3 km/h 43% 0 mm
18:43 28.8 °C 15.3 °C 1012.8 hPa NW 6.4 km/h 11.3 km/h 44% 0 mm
18:48 28.4 °C 15.4 °C 1012.8 hPa NNW 9.7 km/h 12.9 km/h 45% 0 mm
18:53 28.1 °C 15.4 °C 1012.8 hPa North 6.4 km/h 9.7 km/h 46% 0 mm
18:58 27.8 °C 15.2 °C 1012.8 hPa NNE 9.7 km/h 9.7 km/h 46% 0 mm
19:03 28 °C 15.3 °C 1013.1 hPa NNW 6.4 km/h 11.3 km/h 46% 0 mm
19:08 28.1 °C 16 °C 1013.1 hPa NNW 8 km/h 12.9 km/h 48% 0 mm
19:13 28 °C 16 °C 1012.8 hPa NNW 11.3 km/h 12.9 km/h 48% 0 mm
19:18 28 °C 15.7 °C 1013.1 hPa NW 8 km/h 16.1 km/h 47% 0 mm
19:23 28 °C 16 °C 1013.1 hPa NNW 8 km/h 9.7 km/h 48% 0 mm
19:28 27.9 °C 16.6 °C 1013.1 hPa NW 8 km/h 8 km/h 50% 0 mm
19:33 27.9 °C 16.2 °C 1013.1 hPa NW 4.8 km/h 9.7 km/h 49% 0 mm
19:38 27.8 °C 16.2 °C 1013.1 hPa NNW 6.4 km/h 9.7 km/h 49% 0 mm
19:43 27.7 °C 16 °C 1012.8 hPa NNW 8 km/h 9.7 km/h 49% 0 mm
19:48 27.3 °C 15.7 °C 1012.8 hPa NNW 9.7 km/h 14.5 km/h 49% 0 mm
19:53 26.9 °C 16.3 °C 1013.1 hPa NNW 4.8 km/h 9.7 km/h 52% 0 mm
19:58 26.6 °C 15.9 °C 1013.1 hPa NNW 4.8 km/h 6.4 km/h 52% 0 mm
20:03 26.5 °C 16.2 °C 1013.1 hPa North 3.2 km/h 6.4 km/h 53% 0 mm
20:08 26.6 °C 16.3 °C 1013.1 hPa NW 6.4 km/h 8 km/h 53% 0 mm
20:13 26.6 °C 16.5 °C 1013.1 hPa NNW 3.2 km/h 9.7 km/h 54% 0 mm
20:18 26.5 °C 16.4 °C 1013.1 hPa NNW 4.8 km/h 6.4 km/h 54% 0 mm
20:23 26.3 °C 16.6 °C 1013.1 hPa NNW 4.8 km/h 9.7 km/h 55% 0 mm
20:28 26.1 °C 16.7 °C 1013.1 hPa NW 3.2 km/h 6.4 km/h 56% 0 mm
20:33 25.7 °C 16.6 °C 1013.1 hPa NW 6.4 km/h 8 km/h 57% 0 mm
20:38 25.4 °C 16.6 °C 1013.1 hPa NW 6.4 km/h 8 km/h 58% 0 mm
20:43 25.1 °C 16.2 °C 1013.1 hPa NW 4.8 km/h 6.4 km/h 58% 0 mm
20:48 24.8 °C 16.3 °C 1013.1 hPa NW 3.2 km/h 6.4 km/h 59% 0 mm
20:53 24.6 °C 16 °C 1013.1 hPa NW 3.2 km/h 4.8 km/h 59% 0 mm
20:58 24.3 °C 16.1 °C 1013.1 hPa NNW 1.6 km/h 3.2 km/h 60% 0 mm
21:03 24.1 °C 16.1 °C 1013.1 hPa NW 1.6 km/h 3.2 km/h 61% 0 mm
21:08 23.9 °C 16.2 °C 1013.4 hPa NNW 1.6 km/h 3.2 km/h 62% 0 mm
21:13 23.8 °C 16.1 °C 1013.1 hPa NNW 1.6 km/h 3.2 km/h 62% 0 mm
21:18 23.6 °C 16.1 °C 1013.4 hPa NNW 1.6 km/h 4.8 km/h 63% 0 mm
21:23 23.3 °C 15.9 °C 1013.4 hPa North 1.6 km/h 4.8 km/h 63% 0 mm
21:28 23.2 °C 15.7 °C 1013.1 hPa NNW 3.2 km/h 4.8 km/h 63% 0 mm
21:33 23.1 °C 15.9 °C 1013.4 hPa North 4.8 km/h 6.4 km/h 64% 0 mm
21:38 23 °C 15.8 °C 1013.1 hPa North 3.2 km/h 6.4 km/h 64% 0 mm
21:43 22.8 °C 15.9 °C 1013.1 hPa NNW 4.8 km/h 8 km/h 65% 0 mm
21:48 22.7 °C 15.8 °C 1013.4 hPa NNW 3.2 km/h 4.8 km/h 65% 0 mm
21:53 22.6 °C 15.7 °C 1013.1 hPa North 3.2 km/h 4.8 km/h 65% 0 mm
21:58 22.6 °C 15.7 °C 1013.1 hPa NNW 3.2 km/h 6.4 km/h 65% 0 mm
22:03 22.4 °C 15.8 °C 1013.1 hPa North 6.4 km/h 6.4 km/h 66% 0 mm
22:08 22.3 °C 15.7 °C 1013.1 hPa NNE 4.8 km/h 8 km/h 66% 0 mm
22:13 22.2 °C 15.6 °C 1013.1 hPa North 3.2 km/h 6.4 km/h 66% 0 mm
22:18 22.1 °C 15.7 °C 1013.1 hPa North 1.6 km/h 4.8 km/h 67% 0 mm
22:23 21.9 °C 15.5 °C 1013.1 hPa NNE 3.2 km/h 4.8 km/h 67% 0 mm
22:29 21.8 °C 15.4 °C 1013.4 hPa NNE 1.6 km/h 3.2 km/h 67% 0 mm
22:34 21.8 °C 15.4 °C 1013.4 hPa North 1.6 km/h 3.2 km/h 67% 0 mm
22:39 21.7 °C 15.3 °C 1013.4 hPa NNE 3.2 km/h 3.2 km/h 67% 0 mm
22:44 21.7 °C 15.3 °C 1013.4 hPa North 1.6 km/h 4.8 km/h 67% 0 mm
22:49 21.6 °C 15.2 °C 1013.4 hPa Calm   4.8 km/h 67% 0 mm
22:54 21.5 °C 15.1 °C 1013.4 hPa NNE 3.2 km/h 3.2 km/h 67% 0 mm
22:59 21.5 °C 15.1 °C 1013.4 hPa NNE 1.6 km/h 3.2 km/h 67% 0 mm
23:04 21.4 °C 15 °C 1013.4 hPa North 3.2 km/h 3.2 km/h 67% 0 mm
23:09 21.3 °C 14.9 °C 1013.4 hPa North 3.2 km/h 3.2 km/h 67% 0 mm
23:14 21.2 °C 14.8 °C 1013.4 hPa North 4.8 km/h 4.8 km/h 67% 0 mm
23:19 21.2 °C 14.8 °C 1013.4 hPa North 4.8 km/h 4.8 km/h 67% 0 mm
23:24 21 °C 14.9 °C 1013.8 hPa North 3.2 km/h 4.8 km/h 68% 0 mm
23:29 20.9 °C 14.8 °C 1013.8 hPa North 3.2 km/h 6.4 km/h 68% 0 mm
23:34 20.8 °C 14.7 °C 1013.8 hPa NNE 1.6 km/h 4.8 km/h 68% 0 mm
23:39 20.7 °C 14.6 °C 1013.8 hPa North 1.6 km/h 3.2 km/h 68% 0 mm
23:44 20.7 °C 14.8 °C 1013.8 hPa North 1.6 km/h 3.2 km/h 69% 0 mm
23:49 20.6 °C 14.7 °C 1013.8 hPa North 1.6 km/h 3.2 km/h 69% 0 mm
23:54 20.4 °C 14.6 °C 1013.8 hPa North 1.6 km/h 3.2 km/h 69% 0 mm
23:59 20.4 °C 14.6 °C 1013.8 hPa NNE 3.2 km/h 3.2 km/h 69% 0 mm
Compliments of Weather Underground